• în România
  • Lista ţărilor
  • Pe 7 zile
  • Temperatura apei
  • Hartă satelitară
  • Meteo pe hartă
  • Widget-uri
  • user-avatar
    Intrare

    Meteo pe oră la Novokrivovka

    Astăzi, 15 August, Miercuri

    Timp Temperatura Precipitaţii Vânt Presiune Umiditate
    00:00 +19°C° 0 mm 2 m/s 756 mmHg 64%
    01:00 +19°C° 0 mm 2 m/s 756 mmHg 65%
    02:00 +18°C° 0 mm 2 m/s 756 mmHg 67%
    03:00 +18°C° 0 mm 2 m/s 756 mmHg 68%
    04:00 +18°C° 0 mm 2 m/s 757 mmHg 68%
    05:00 +18°C° 0 mm 2 m/s 757 mmHg 68%
    06:00 +18°C° 0 mm 2 m/s 757 mmHg 68%
    07:00 +20°C° 0 mm 2 m/s 758 mmHg 61%
    08:00 +23°C° 0 mm 2 m/s 758 mmHg 54%
    09:00 +24°C° 0 mm 2 m/s 758 mmHg 47%
    10:00 +25°C° 0 mm 2 m/s 758 mmHg 42%
    11:00 +26°C° 0 mm 2 m/s 758 mmHg 38%
    12:00 +27°C° 0 mm 2 m/s 758 mmHg 33%
    13:00 +28°C° 0 mm 2 m/s 758 mmHg 31%
    14:00 +28°C° 0 mm 1 m/s 758 mmHg 30%
    15:00 +29°C° 0 mm 1 m/s 758 mmHg 28%
    16:00 +29°C° 0 mm 1 m/s 757 mmHg 30%
    17:00 +28°C° 0 mm 1 m/s 757 mmHg 32%
    18:00 +28°C° 0 mm 1 m/s 757 mmHg 34%
    19:00 +26°C° 0 mm 1 m/s 757 mmHg 35%
    20:00 +25°C° 0 mm 1 m/s 758 mmHg 37%
    21:00 +23°C° 0 mm 1 m/s 758 mmHg 38%
    22:00 +23°C° 0 mm 1 m/s 758 mmHg 39%
    23:00 +21°C° 0 mm 2 m/s 758 mmHg 40%

    Mâine, 16 August, Joi

    Timp Temperatura Precipitaţii Vânt Presiune Umiditate
    00:00 +21°C° 0 mm 2 m/s 758 mmHg 41%
    01:00 +20°C° 0 mm 2 m/s 758 mmHg 42%
    02:00 +20°C° 0 mm 2 m/s 758 mmHg 43%
    03:00 +20°C° 0 mm 2 m/s 758 mmHg 44%
    04:00 +20°C° 0 mm 2 m/s 758 mmHg 45%
    05:00 +20°C° 0 mm 2 m/s 758 mmHg 46%
    06:00 +20°C° 0 mm 2 m/s 758 mmHg 46%
    07:00 +23°C° 0 mm 2 m/s 758 mmHg 41%
    08:00 +26°C° 0 mm 2 m/s 758 mmHg 36%
    09:00 +28°C° 0 mm 3 m/s 758 mmHg 31%
    10:00 +29°C° 0 mm 3 m/s 758 mmHg 29%
    11:00 +30°C° 0 mm 3 m/s 757 mmHg 28%
    12:00 +31°C° 0 mm 3 m/s 757 mmHg 26%
    13:00 +31°C° 0 mm 2 m/s 757 mmHg 26%
    14:00 +32°C° 0 mm 2 m/s 757 mmHg 25%
    15:00 +32°C° 0 mm 2 m/s 756 mmHg 25%
    16:00 +32°C° 0 mm 2 m/s 756 mmHg 27%
    17:00 +31°C° 0 mm 2 m/s 756 mmHg 29%
    18:00 +30°C° 0 mm 1 m/s 756 mmHg 31%
    19:00 +29°C° 0 mm 1 m/s 756 mmHg 33%
    20:00 +27°C° 0 mm 1 m/s 756 mmHg 35%
    21:00 +26°C° 0 mm 1 m/s 756 mmHg 37%
    22:00 +25°C° 0 mm 1 m/s 756 mmHg 38%
    23:00 +25°C° 0 mm 1 m/s 756 mmHg 39%

    Poimâine, 17 August, Vineri

    Timp Temperatura Precipitaţii Vânt Presiune Umiditate
    00:00 +24°C° 0 mm 1 m/s 756 mmHg 40%
    01:00 +24°C° 0 mm 1 m/s 756 mmHg 41%
    02:00 +24°C° 0 mm 1 m/s 755 mmHg 41%
    03:00 +23°C° 0 mm 1 m/s 755 mmHg 42%
    04:00 +23°C° 0 mm 1 m/s 755 mmHg 43%
    05:00 +24°C° 0 mm 1 m/s 755 mmHg 44%
    06:00 +24°C° 0 mm 1 m/s 755 mmHg 44%
    07:00 +26°C° 0 mm 1 m/s 756 mmHg 40%
    08:00 +28°C° 0 mm 1 m/s 756 mmHg 36%
    09:00 +30°C° 0 mm 1 m/s 756 mmHg 32%
    10:00 +31°C° 0 mm 1 m/s 756 mmHg 30%
    11:00 +32°C° 0 mm 2 m/s 755 mmHg 29%
    12:00 +32°C° 0 mm 2 m/s 755 mmHg 27%
    13:00 +34°C° 0 mm 2 m/s 755 mmHg 27%
    14:00 +34°C° 0 mm 2 m/s 755 mmHg 27%
    15:00 +34°C° 0 mm 2 m/s 754 mmHg 27%
    16:00 +33°C° 0 mm 3 m/s 754 mmHg 33%
    17:00 +30°C° 0 mm 4 m/s 754 mmHg 39%
    18:00 +29°C° 0 mm 5 m/s 754 mmHg 45%
    19:00 +27°C° 0,6 mm 5 m/s 754 mmHg 54%
    20:00 +25°C° 0,6 mm 5 m/s 755 mmHg 63%
    21:00 +22°C° 0,6 mm 6 m/s 755 mmHg 72%
    22:00 +22°C° 0,2 mm 6 m/s 755 mmHg 74%
    23:00 +21°C° 0,2 mm 6 m/s 755 mmHg 76%

    18 August, Sâmbătă

    Timp Temperatura Precipitaţii Vânt Presiune Umiditate
    00:00 +20°C° 0,2 mm 5 m/s 755 mmHg 77%
    01:00 +20°C° 0,1 mm 5 m/s 755 mmHg 77%
    02:00 +19°C° 0,1 mm 5 m/s 756 mmHg 77%
    03:00 +19°C° 0,1 mm 5 m/s 756 mmHg 77%
    04:00 +17°C° 0 mm 5 m/s 756 mmHg 77%
    05:00 +17°C° 0 mm 6 m/s 756 mmHg 76%
    06:00 +16°C° 0 mm 6 m/s 757 mmHg 76%
    07:00 +19°C° 0 mm 6 m/s 757 mmHg 69%
    08:00 +20°C° 0 mm 6 m/s 757 mmHg 62%
    09:00 +21°C° 0 mm 7 m/s 757 mmHg 55%
    10:00 +22°C° 0 mm 7 m/s 757 mmHg 50%
    11:00 +23°C° 0 mm 6 m/s 757 mmHg 46%
    12:00 +24°C° 0 mm 6 m/s 757 mmHg 41%
    13:00 +24°C° 0 mm 6 m/s 757 mmHg 40%
    14:00 +26°C° 0 mm 7 m/s 757 mmHg 38%
    15:00 +26°C° 0 mm 7 m/s 757 mmHg 37%
    16:00 +24°C° 0 mm 6 m/s 757 mmHg 39%
    17:00 +23°C° 0 mm 6 m/s 757 mmHg 41%
    18:00 +22°C° 0 mm 6 m/s 757 mmHg 43%
    19:00 +21°C° 0 mm 6 m/s 758 mmHg 46%
    20:00 +20°C° 0 mm 5 m/s 758 mmHg 50%
    21:00 +17°C° 0 mm 5 m/s 758 mmHg 53%
    22:00 +17°C° 0 mm 5 m/s 758 mmHg 56%
    23:00 +16°C° 0 mm 5 m/s 758 mmHg 59%

    19 August, Duminică

    Timp Temperatura Precipitaţii Vânt Presiune Umiditate
    00:00 +15°C° 0 mm 4 m/s 759 mmHg 61%
    01:00 +15°C° 0 mm 4 m/s 759 mmHg 64%
    02:00 +14°C° 0 mm 4 m/s 759 mmHg 67%
    03:00 +13°C° 0 mm 4 m/s 759 mmHg 70%
    04:00 +13°C° 0 mm 4 m/s 759 mmHg 71%
    05:00 +13°C° 0 mm 4 m/s 759 mmHg 71%
    06:00 +13°C° 0 mm 4 m/s 759 mmHg 72%
    07:00 +15°C° 0 mm 5 m/s 759 mmHg 64%
    08:00 +16°C° 0 mm 6 m/s 759 mmHg 56%
    09:00 +17°C° 0 mm 6 m/s 759 mmHg 48%
    10:00 +19°C° 0 mm 6 m/s 759 mmHg 45%
    11:00 +20°C° 0 mm 6 m/s 759 mmHg 42%
    12:00 +21°C° 0 mm 6 m/s 759 mmHg 39%
    13:00 +22°C° 0 mm 6 m/s 758 mmHg 39%
    14:00 +22°C° 0 mm 6 m/s 758 mmHg 38%
    15:00 +22°C° 0 mm 6 m/s 758 mmHg 37%
    16:00 +22°C° 0 mm 6 m/s 758 mmHg 40%
    17:00 +21°C° 0 mm 6 m/s 758 mmHg 42%
    18:00 +21°C° 0 mm 5 m/s 758 mmHg 45%
    19:00 +19°C° 0 mm 5 m/s 758 mmHg 49%
    20:00 +18°C° 0 mm 4 m/s 758 mmHg 54%
    21:00 +17°C° 0 mm 3 m/s 758 mmHg 59%
    22:00 +16°C° 0 mm 3 m/s 758 mmHg 62%
    23:00 +16°C° 0 mm 3 m/s 758 mmHg 65%

    20 August, Luni

    Timp Temperatura Precipitaţii Vânt Presiune Umiditate
    00:00 +14°C° 0 mm 3 m/s 758 mmHg 68%
    01:00 +14°C° 0 mm 3 m/s 758 mmHg 71%
    02:00 +13°C° 0 mm 3 m/s 758 mmHg 74%
    03:00 +13°C° 0 mm 3 m/s 758 mmHg 77%
    04:00 +13°C° 0 mm 3 m/s 758 mmHg 77%
    05:00 +13°C° 0 mm 3 m/s 758 mmHg 77%
    06:00 +13°C° 0 mm 3 m/s 759 mmHg 77%
    07:00 +16°C° 0 mm 3 m/s 759 mmHg 69%
    08:00 +18°C° 0 mm 3 m/s 759 mmHg 61%
    09:00 +20°C° 0 mm 3 m/s 759 mmHg 53%
    10:00 +21°C° 0 mm 3 m/s 758 mmHg 47%
    11:00 +22°C° 0 mm 3 m/s 758 mmHg 42%
    12:00 +24°C° 0 mm 3 m/s 758 mmHg 36%
    13:00 +24°C° 0 mm 3 m/s 758 mmHg 34%
    14:00 +25°C° 0 mm 2 m/s 758 mmHg 32%
    15:00 +25°C° 0 mm 2 m/s 757 mmHg 30%
    16:00 +25°C° 0 mm 2 m/s 757 mmHg 32%
    17:00 +25°C° 0 mm 2 m/s 757 mmHg 34%
    18:00 +24°C° 0 mm 1 m/s 757 mmHg 36%
    19:00 +23°C° 0 mm 2 m/s 757 mmHg 39%
    20:00 +20°C° 0 mm 2 m/s 757 mmHg 42%
    21:00 +19°C° 0 mm 2 m/s 757 mmHg 45%
    22:00 +18°C° 0 mm 2 m/s 757 mmHg 47%
    23:00 +19°C° 0 mm 1 m/s 757 mmHg 48%
    Arată mai mult